Wright-Patt AFB, OH

10:27 AM EDT on May 24, 2018 (GMT -0400)
Wright-Patterson Air Force Base

Weather History for KFFO - February, 2014

Change the Weather History Date:

Monday, February 24, 2014

  Actual Average Record
Temperature  
Mean Temperature 26 °F -  
Max Temperature 33 °F 42 °F 75 °F (2017)
Min Temperature 20 °F 24 °F -13 °F (2015)
Degree Days  
Heating Degree Days 38    
Moisture  
Dew Point 9 °F    
Average Humidity 46    
Maximum Humidity 68    
Minimum Humidity 30    
Precipitation  
Precipitation 0.00 in - - ()
Sea Level Pressure  
Sea Level Pressure 30.23 in    
Wind  
Wind Speed 10 mph (West)    
Max Wind Speed 18 mph    
Max Gust Speed 29 mph    
Visibility 10 miles    
Events      
Averages and records for this station are not official NWS values.
T = Trace of Precipitation, MM = Missing Value Source: NWS Daily Summary

Daily Weather History Graph

Daily Weather History Graph

Search for Another Location

Airport or City:

Astronomy

Feb. 24, 2014 Rise Set
Actual Time 7:16 AM EST 6:22 PM EST
Civil Twilight 6:49 AM EST 6:49 PM EST
Nautical Twilight 6:18 AM EST 7:21 PM EST
Astronomical Twilight 5:46 AM EST 7:52 PM EST
Moon 3:14 AM EST 1:23 PM EST
Length of Visible Light 12h 00m
Length of Day
11h 06m
Waning Crescent, 28% of the Moon is Illuminated
Feb 24
Waning Crescent
Mar 1
New
Mar 8
First Quarter
Mar 16
Full
Mar 23
Last Quarter

Hourly Weather History & Observations

Time (EST) Temp. Windchill Dew Point Humidity Pressure Visibility Wind Dir Wind Speed Gust Speed Precip Events Conditions
12:58 AM 22.6 °F 18.0 °F 13.5 °F 68% 30.19 in 10.0 mi West 3.5 mph - N/A   Clear
1:58 AM 23.7 °F 14.0 °F 12.0 °F 61% 30.20 in 10.0 mi West 9.2 mph - N/A   Clear
2:58 AM 23.2 °F 14.1 °F 13.5 °F 66% 30.20 in 10.0 mi West 8.1 mph - N/A   Clear
3:58 AM 22.6 °F 12.6 °F 13.6 °F 68% 30.19 in 10.0 mi West 9.2 mph - N/A   Scattered Clouds
4:58 AM 21.7 °F 12.3 °F 11.3 °F 64% 30.20 in 10.0 mi West 8.1 mph - N/A   Clear
5:58 AM 20.8 °F 11.2 °F 11.3 °F 67% 30.21 in 10.0 mi WSW 8.1 mph - N/A   Clear
6:58 AM 20.5 °F 10.8 °F 10.9 °F 67% 30.21 in 10.0 mi West 8.1 mph - N/A   Clear
7:58 AM 20.7 °F 10.2 °F 11.1 °F 67% 30.25 in 10.0 mi West 9.2 mph - N/A   Clear
8:58 AM 22.6 °F 10.7 °F 10.4 °F 59% 30.25 in 10.0 mi West 12.7 mph - N/A   Clear
9:58 AM 25.0 °F 14.8 °F 10.6 °F 54% 30.26 in 10.0 mi West 10.4 mph - N/A   Clear
10:58 AM 26.8 °F 14.9 °F 5.7 °F 41% 30.27 in 10.0 mi WNW 15.0 mph 18.4 mph N/A   Clear
11:58 AM 29.1 °F 17.9 °F 6.6 °F 39% 30.28 in 10.0 mi West 15.0 mph 18.4 mph N/A   Clear
12:13 PM 30.2 °F 19.3 °F 6.8 °F 37% 30.25 in 10.0 mi West 15.0 mph - N/A   Clear
12:58 PM 31.8 °F 20.2 °F 8.2 °F 37% 30.27 in 10.0 mi West 18.4 mph - N/A   Clear
1:08 PM 32.0 °F 23.0 °F 5.0 °F 32% 30.23 in 10.0 mi WNW 11.5 mph - N/A   Clear
1:11 PM 32.0 °F 22.1 °F 6.8 °F 35% 30.22 in 10.0 mi West 13.8 mph - N/A   Clear
1:37 PM 32.0 °F 21.2 °F 6.8 °F 35% 30.22 in 10.0 mi West 16.1 mph 20.7 mph N/A   Clear
1:46 PM 32.0 °F 21.6 °F 5.0 °F 32% 30.22 in 10.0 mi WSW 15.0 mph 23.0 mph N/A   Clear
1:58 PM 32.0 °F 21.6 °F 6.3 °F 34% 30.26 in 10.0 mi WSW 15.0 mph - N/A   Partly Cloudy
2:03 PM 32.0 °F 20.5 °F 8.6 °F 38% 30.21 in 10.0 mi West 18.4 mph 28.8 mph N/A   Partly Cloudy
2:22 PM 32.0 °F 22.1 °F 6.8 °F 35% 30.22 in 10.0 mi WSW 13.8 mph - N/A   Clear
2:34 PM 32.0 °F 21.6 °F 3.2 °F 30% 30.22 in 10.0 mi West 15.0 mph 24.2 mph N/A   Clear
2:58 PM 32.2 °F 21.4 °F 4.3 °F 31% 30.25 in 10.0 mi West 16.1 mph 24.2 mph N/A   Clear
3:58 PM 33.1 °F 24.4 °F 6.6 °F 33% 30.25 in 10.0 mi West 11.5 mph - N/A   Clear
4:58 PM 31.1 °F 21.9 °F 6.4 °F 35% 30.26 in 10.0 mi West 11.5 mph - N/A   Clear
5:58 PM 30.2 °F 21.3 °F 6.4 °F 37% 30.25 in 10.0 mi West 10.4 mph - N/A   Clear
6:58 PM 28.9 °F 21.9 °F 7.2 °F 40% 30.25 in 10.0 mi West 6.9 mph - N/A   Partly Cloudy
7:58 PM 28.4 °F 21.2 °F 7.3 °F 41% 30.26 in 10.0 mi West 6.9 mph - N/A   Scattered Clouds
8:58 PM 27.5 °F 20.2 °F 9.5 °F 47% 30.25 in 10.0 mi West 6.9 mph - N/A   Overcast
9:58 PM 27.7 °F 21.3 °F 11.1 °F 50% 30.22 in 10.0 mi West 5.8 mph - N/A   Mostly Cloudy
10:58 PM 27.3 °F 19.1 °F 11.8 °F 52% 30.22 in 10.0 mi West 8.1 mph - N/A   Mostly Cloudy
11:58 PM 26.4 °F 19.8 °F 11.3 °F 53% 30.21 in 10.0 mi West 5.8 mph - N/A   Overcast